Location: Red Rock Canyon
(36.1333°N, 115.4333°W)
Time: 21:32:42
(UTC-08:00)

ISS - Visible Passes

Search period start: 20 December 2014 00:00
Search period end: 30 December 2014 00:00
Orbit: 404 x 414 km, 51.6° (Epoch: 20 December)

Date Brightness Start Highest point End Pass type
(mag) Time Alt. Az. Time Alt. Az. Time Alt. Az.
23 Dec -1.5 17:57:44 10° NNW 17:59:25 20° N 17:59:25 20° N visible
24 Dec -1.4 17:07:19 10° N 17:09:18 15° NNE 17:11:11 10° ENE visible
24 Dec -0.8 18:42:56 10° NW 18:43:59 19° NW 18:43:59 19° NW visible
25 Dec -3.2 17:52:01 10° NW 17:55:15 54° NE 17:56:01 41° E visible
26 Dec -2.4 17:01:14 10° NNW 17:04:10 29° NE 17:07:05 10° E visible
26 Dec -1.1 18:37:57 10° WNW 18:40:37 23° SW 18:41:16 22° SSW visible
27 Dec -2.3 17:46:31 10° WNW 17:49:42 48° SW 17:52:51 10° SSE visible
29 Dec -0.2 17:41:35 10° W 17:43:47 17° SW 17:45:57 10° S visible
